{"data":{"norad_id":61901,"intl_designator":"2024-205H","name":"2024-205H","alt_names":[],"object_type":"PAYLOAD","status":"ACTIVE","operator":null,"country":"PRC","launch_date":"2024-11-11","launch_site_code":"JSC","launch_vehicle":null,"mission":null,"orbit_class":"UNKNOWN","rcs_meters":null,"size_class":null,"mass_kg":null,"dimensions":null,"purposes":[],"wikipedia_slug":null,"has_3d_model":false,"image_url":null,"decayed_at":null,"tle_current":{"epoch":"2026-05-25T05:09:00.863712Z","epoch_age_seconds":67061,"freshness":"FRESH","line1":"1 61901U 24205H   26145.21459333  .00013747  00000+0  45895-3 0  9993","line2":"2 61901  97.4110 223.2343 0011486 118.2558 241.9844 15.31097720 85202","mean_motion":15.3109772,"eccentricity":0.0011486,"inclination_deg":97.411,"raan_deg":223.2343,"arg_perigee_deg":118.2558,"mean_anomaly_deg":241.9844,"bstar":0.00045895,"rev_number":8520,"period_min":94.050169443137,"perigee_km":464.66726611852,"apogee_km":480.40463201712,"semimajor_km":6850.6729490678,"source":"CELESTRAK","updated_at":"2026-05-25T13:38:02.603888Z"}}}